[Iaude] MPEC S95: 2023 SO1 [a=1.75,e=0.41,i=5.6,H=24.8]

mpec at marsden.cfa.harvard.edu mpec at marsden.cfa.harvard.edu
Tue Sep 19 18:19:04 EDT 2023


M.P.E.C. 2023-S95                            Issued 2023 September 19, 22:17 UT

     The Minor Planet Electronic Circulars contain information on unusual
         minor planets, routine data on comets and natural satellites,
         and occasional editorial announcements.  They are published
    on behalf of Division F of the International Astronomical Union by the
          Minor Planet Center, Smithsonian Astrophysical Observatory,
                          Cambridge, MA 02138, U.S.A.
			  
             Prepared using the Tamkin Foundation Computer Network

                              MPC at CFA.HARVARD.EDU
            URL https://www.minorplanetcenter.net/    ISSN 1523-6714

                                    2023 SO1                                    


Observations:
     K23S01O*1C2023 09 18.31748400 47 08.653+11 11 53.74         20.29GVES095G96
     K23S01O 1C2023 09 18.32268200 47 09.827+11 12 26.28         20.65GVES095G96
     K23S01O 1C2023 09 18.32791400 47 10.979+11 12 59.47         20.67GVES095G96
     K23S01O 1C2023 09 18.33312700 47 12.120+11 13 32.27         21.02GVES095G96
     K23S01O mC2023 09 18.41778100 47 30.900+11 22 27.50         20.73GVES095I52
     K23S01O mC2023 09 18.41837900 47 31.030+11 22 31.10         21.52GVES095I52
     K23S01O 1C2023 09 18.84870 00 49 27.10 +12 08 03.2          20.5 VXES095033
     K23S01O 1C2023 09 18.85014 00 49 27.43 +12 08 13.1          20.6 VXES095033
     K23S01O 1C2023 09 18.85159 00 49 27.79 +12 08 22.0          21.1 VXES095033
     K23S01O KC2023 09 19.27111200 51 15.71 +12 54 33.5          21.1 VuES095H21
     K23S01O KC2023 09 19.27672400 51 17.05 +12 55 10.8          21.1 VuES095H21
     K23S01O KC2023 09 19.28233600 51 18.39 +12 55 48.2          21.0 VuES095H21
     K23S01O KC2023 09 19.28776100 51 19.67 +12 56 24.2          21.1 VuES095H21
     K23S01O 1C2023 09 19.89032 00 54 06.69 +14 03 37.6          20.3 VXES095033
     K23S01O 1C2023 09 19.89153 00 54 07.01 +14 03 46.3          20.5 VXES095033
     K23S01O 1C2023 09 19.89274 00 54 07.32 +14 03 54.3          20.9 VXES095033

Observer details:
033 Karl Schwarzschild Observatory, Tautenburg.  Observers S. Melnikov, C.
    Hogner, F. Ludwig, M. Hartmann, B. Stecklum.  Measurer B. Stecklum.
    1.34-m f/3 Schmidt + CCD.
G96 Mt. Lemmon Survey.  Observer J. K. Hogan.  Measurers E. J. Christensen, D.
    Fay, J. B. Fazekas, D. C. Fuls, A. R. Gibbs, A. D. Grauer, H. Groeller, J.
    K. Hogan, R. A. Kowalski, S. M. Larson, G. J. Leonard, D. Rankin, R. L.
    Seaman, A. Serrano, F. C. Shelly, K. W. Wierzchos.  1.5-m reflector + 10K
    CCD.
H21 Astronomical Research Observatory, Westfield.  Observer R. Holmes.
    Measurers T. Linder, R. Holmes, L. Horn.  0.81-m f/4.0 astrograph + CCD.
I52 Steward Observatory, Mt. Lemmon Station.  Observer K. W. Wierzchos.
    Measurers E. J. Christensen, D. Fay, J. B. Fazekas, D. C. Fuls, A. R.
    Gibbs, A. D. Grauer, H. Groeller, J. K. Hogan, R. A. Kowalski, S. M.
    Larson, G. J. Leonard, D. Rankin, R. L. Seaman, A. Serrano, F. C. Shelly,
    K. W. Wierzchos.  1.0-m prime focus + CCD.

Orbital elements:
2023 SO1                                                 Earth MOID = 0.0635 AU
Epoch 2023 Sept. 13.0 TT = JDT 2460200.5                Bell                    
M 342.85755              (2000.0)            P               Q                  
n   0.42554083     Peri.   42.67805     +0.82796129     -0.56059637             
a   1.7505528      Node   351.38296     +0.48475919     +0.72852066             
e   0.4103252      Incl.    5.57426     +0.28193728     +0.39368688             
P   2.32           H   24.81          G   0.15           U   9                  
Residuals in seconds of arc
230918 G96  0.3-  0.4+    230918 033  0.2+  0.1-    230919 H21  0.0   0.2+
230918 G96  0.1+  0.0     230918 033  0.2-  0.3+    230919 033  0.0   0.5-
230918 G96  0.1+  0.1+    230918 033  0.2-  0.3-    230919 033  0.1+  0.1-
230918 G96  0.1-  0.1-    230919 H21  0.2-  0.1-    230919 033  0.1+  0.4-
230918 I52  0.0   0.2+    230919 H21  0.0   0.0
230918 I52  0.0   0.0     230919 H21  0.1+  0.2+

Ephemeris:
2023 SO1                 a,e,i = 1.75, 0.41, 6                   q = 1.0323
Date    TT    R. A. (2000) Decl.     Delta      r    Elong.  Phase     V
2023 08 20    23 38 57.6 -13 30 48   0.2366  1.2300   154.6    20.7    23.2
...
2023 09 04    00 04 49.1 -05 56 43   0.1548  1.1563   161.2    16.3    22.0
...
2023 09 12    00 24 48.1 +01 50 52   0.1204  1.1220   162.2    15.9    21.3
...
2023 09 18    00 45 48.1 +10 39 12   0.1000  1.0991   159.2    19.0    21.0
2023 09 19    00 50 03.2 +12 25 25   0.09714 1.0956   158.2    19.9    20.9
2023 09 20    00 54 34.3 +14 17 02   0.09444 1.0921   157.1    21.0    20.9
...
2023 09 26    01 28 44.5 +27 09 37   0.08235 1.0732   147.5    30.2    20.8
...
2023 10 04    02 41 43.5 +45 42 17   0.07850 1.0530   130.3    46.4    21.2
...
2023 10 19    06 09 22.7 +60 41 16   0.1018  1.0332   108.6    66.1    22.3

M. P. C. Staff               (C) Copyright 2023 MPC           M.P.E.C. 2023-S95





More information about the Iaude mailing list